Location: Poughquag
(41.6090°N, 73.6820°W)
Time: 12:17:14
(UTC-04:00)

Tiros 1 - Pass Details

Date: 05 June 2020
Orbit: 630 x 664 km, 48.4° (Epoch: 06 July)

Event Time Altitude Azimuth Distance (km) Brightness Sun altitude
Rises 15:48:31 0° 297° (WNW) 2,964 11.0 48.9°
Reaches altitude 10° 15:50:55 10° 302° (WNW) 2,046 10.3 48.5°
Maximum altitude 15:55:33 55° 20° (NNE) 768 8.0 47.7°
Drops below altitude 10° 16:00:07 10° 99° (E) 2,019 9.4 46.8°
Sets 16:02:28 0° 104° (ESE) 2,921 10.1 46.4°
